This is the latest recevied weather packets stored in our database for station/object KB3KBR-WX. If no packets are shown the sender has not sent any weather packets the latest 10 day(s).
| Time | Temp. | Humidity | Pressure | Rain* | Wind** | Luminosity | Snow |
|---|---|---|---|---|---|---|---|
| 1788017131 | 21.11° C | 63% | 1022.6 hPa | 0 mm | - | - | - |
| 1788016831 | 20.56° C | 65% | 1022.7 hPa | 0 mm | - | - | - |
| 1788016501 | 20.56° C | 65% | 1022.7 hPa | 0 mm | - | - | - |
| 1788016202 | 20° C | 71% | 1022.8 hPa | 0 mm | - | - | - |
| 1788015870 | 20° C | 70% | 1022.7 hPa | 0 mm | - | - | - |
| 1788015541 | 19.44° C | 69% | 1022.8 hPa | 0 mm | - | - | - |
| 1788015241 | 19.44° C | 70% | 1022.8 hPa | 0 mm | - | - | - |
| 1788014912 | 18.89° C | 72% | 1022.8 hPa | 0 mm | - | - | - |
| 1788014580 | 18.89° C | 72% | 1022.8 hPa | 0 mm | - | - | - |
| 1788014250 | 18.89° C | 75% | 1022.8 hPa | 0 mm | - | - | - |
| 1788013921 | 18.33° C | 73% | 1022.7 hPa | 0 mm | - | - | - |
| 1788013622 | 18.33° C | 72% | 1022.7 hPa | 0 mm | - | - | - |
| 1788013292 | 17.78° C | 75% | 1022.6 hPa | 0 mm | - | - | - |
| 1788012961 | 16.67° C | 79% | 1022.7 hPa | 0 mm | - | - | - |
| 1788012660 | 16.11° C | 89% | 1022.7 hPa | 0 mm | - | - | - |
| 1788012361 | 15° C | 95% | 1022.6 hPa | 0 mm | - | - | - |
| 1788012030 | 14.44° C | 96% | 1022.5 hPa | 0 mm | - | - | - |
| 1788011730 | 14.44° C | 97% | 1022.5 hPa | 0 mm | - | - | - |
| 1788011400 | 13.89° C | 97% | 1022.5 hPa | 0 mm | - | - | - |
| 1788011100 | 13.89° C | 97% | 1022.5 hPa | 0 mm | - | - | - |
| 1788010770 | 13.33° C | 97% | 1022.5 hPa | 0 mm | - | - | - |
| 1788010471 | 13.33° C | 97% | 1022.5 hPa | 0 mm | - | - | - |
| 1788010171 | 12.78° C | 97% | 1022.4 hPa | 0 mm | - | - | - |
| 1788009841 | 12.22° C | 96% | 1022.3 hPa | 0 mm | - | - | - |
| 1788009541 | 12.22° C | 96% | 1022.3 hPa | 0 mm | - | - | - |
* Rain latest hour (hover to see other rain measurements)
** Current wind speed in m/s (hover to see current wind gust speed)